User: anonymous   Login
Location: Casco Volunteer Fire Department
(44.5576°N, 87.6146°W)
Time: 10:30:06
(UTC+00:00)
Language:

RESURS DK-1 - Orbit

View from above orbital plane
View from above orbital plane
View from above satellite
View from above satellite

Ground track
Ground track

The orbit is defined by the following mean orbital elements,

1 29228U          26071.77551628 +.00000000 +00000-0 +22706-3 0 00003
2 29228  69.9325 229.0399 0001570 159.9148 200.2081 15.12769237    09
Epoch (UTC): 12 March 2026 18:36:44
Eccentricity: 0.0001570
inclination: 69.9325°
perigee height: 527 km
apogee height: 529 km
right ascension of ascending node: 229.0399°
argument of perigee: 159.9148°
revolutions per day: 15.12769237
mean anomaly at epoch: 200.2081°

The dashed part of the orbit path shows where the satellite is in the earth's shadow,  

DLR